Wind_Speed
27 29 30 31 31 29 28 27 26 25 23 21 19 19 21 23 25 25 26 26 24 24 24 24 23 22 21 20 19 18 17 16 17 19 20 22 23 23 24 25 26 27 27 27
26 27 28 30 31 30 29 27 25 24 23 21 20 21 22 24 24 24 25 25 25 24 25 25 25 23 22 21 20 20 18 19 19 21 24 26 27 27 29 30 31 32 32 32
24 26 29 30 30 29 29 27 26 25 25 23 21 21 24 24 24 25 26 25 25 25 25 25 26 25 24 22 23 23 22 23 23 25 27 29 31 32 34 34 35 36 37 36
23 26 29 30 31 31 29 28 28 26 25 23 22 22 24 25 26 26 26 26 26 25 27 28 27 27 26 26 26 26 25 25 27 29 30 32 34 36 37 37 38 38 38 38
22 24 26 29 30 32 31 30 30 28 27 27 26 25 25 27 28 28 28 27 27 27 28 29 29 30 30 29 29 29 30 31 33 33 33 34 36 38 39 38 38 37 37 37
20 23 25 26 29 31 33 33 33 31 29 29 27 27 26 28 31 31 31 30 29 28 29 30 31 32 33 33 33 33 35 35 35 36 36 38 39 40 40 39 39 39 39 39
19 21 23 25 27 30 32 33 34 33 32 30 27 28 29 29 32 34 34 33 32 32 32 33 33 34 36 36 36 36 37 38 39 40 40 41 41 41 41 40 40 40 41 41
16 18 20 23 26 28 30 32 33 33 33 31 29 32 32 31 33 35 36 35 35 35 35 35 36 37 38 38 38 38 39 40 42 42 42 42 41 41 41 42 42 43 43 44
14 16 17 19 22 24 27 28 29 30 31 31 32 34 33 30 31 34 36 36 36 36 35 37 38 39 40 40 40 40 40 41 41 42 42 42 42 42 42 43 44 44 45 46
12 15 17 17 19 21 23 24 26 28 30 31 31 32 32 30 30 30 32 35 35 35 36 36 38 39 39 39 39 40 41 40 40 40 40 41 42 43 44 45 46 47 48 49
11 13 16 18 18 17 20 23 25 27 29 31 31 32 33 31 30 29 30 32 33 34 36 37 37 37 37 38 39 40 40 39 39 40 40 41 43 44 45 46 48 49 51 52
10 13 15 17 16 16 18 20 23 26 27 30 33 35 35 32 30 30 29 30 30 32 35 36 36 36 37 38 38 37 37 38 39 40 41 42 43 44 46 48 50 52 53 55
10 12 14 16 17 18 19 21 22 24 25 28 32 36 36 33 31 30 28 27 29 30 31 34 35 34 35 35 35 35 36 37 39 40 41 42 44 46 48 50 52 54 56 58
9 11 14 17 19 20 21 23 24 25 27 28 31 34 35 34 33 32 30 28 27 29 30 31 32 33 34 34 34 34 36 38 39 41 43 45 47 49 50 53 54 55 57 59
6 9 10 14 17 20 22 23 24 26 27 28 29 31 33 34 34 32 29 28 28 27 28 29 30 30 31 32 34 35 37 39 41 43 45 47 48 50 52 53 54 56 57 58
5 7 9 11 13 16 20 21 23 24 25 27 28 29 30 32 32 32 30 29 28 28 28 28 29 29 30 32 34 36 38 40 41 43 45 46 48 49 51 51 53 55 56 57
4 6 6 7 10 13 16 18 19 23 24 25 27 28 28 28 28 29 29 29 29 30 29 28 28 30 30 32 34 35 37 39 41 43 45 46 48 49 50 51 52 53 54 55
3 5 6 9 10 12 11 13 16 19 21 22 23 24 26 27 27 27 27 28 29 29 30 29 29 29 30 31 32 34 36 38 40 42 43 44 46 48 49 49 50 51 52 52
3 5 7 9 11 12 14 14 15 16 19 21 22 22 23 25 27 28 28 27 27 26 26 26 27 27 29 30 31 33 35 36 38 40 41 42 43 44 45 46 48 49 50 51
5 5 7 9 11 12 13 15 16 17 18 19 20 21 22 23 24 24 24 23 24 25 26 26 27 27 29 31 32 32 34 35 37 38 39 39 41 42 43 45 46 48 48 48
7 7 7 9 10 11 12 13 15 16 18 18 18 20 20 21 22 22 22 22 23 24 24 25 27 28 29 30 31 31 33 34 34 35 36 37 38 40 41 43 43 43 42 41
9 9 9 10 11 12 13 14 15 17 18 18 18 19 19 20 21 21 21 21 21 22 23 25 26 27 27 28 28 29 30 31 31 32 33 34 35 36 38 38 37 36 34 32
10 10 11 12 12 13 14 14 15 16 17 17 17 17 18 18 19 19 19 19 20 22 23 24 24 25 25 26 27 28 28 28 29 29 30 31 32 33 33 32 30 29 28 26
11 12 13 13 14 14 14 14 15 15 16 15 15 15 15 16 16 17 17 18 19 20 20 21 21 22 23 24 25 25 25 25 25 26 27 28 28 29 28 27 25 24 23 22
13 14 15 15 15 15 15 14 15 15 15 14 14 14 13 14 14 15 15 16 16 16 17 18 19 21 22 22 22 22 22 22 22 23 24 24 24 24 23 23 22 20 19 18
14 15 16 15 16 15 15 14 14 14 14 14 13 13 13 13 13 13 13 13 14 15 16 16 17 18 19 20 20 20 19 19 20 20 20 20 20 19 20 19 18 17 16 15
Wind_Direction
221 220 219 219 220 220 221 220 215 208 205 208 203 196 195 200 208 214 220 226 232 238 245 249 252 251 250 243 235 234 240 252 266 274 279 283 286 288 289 291 292 291 290 292
221 219 217 218 217 215 216 213 205 201 203 204 195 190 194 201 208 217 225 230 236 241 247 251 252 254 256 255 248 246 248 254 262 270 276 281 283 286 288 289 289 288 288 289
220 216 215 215 213 212 213 206 196 196 201 203 197 193 200 208 214 221 227 232 239 244 250 253 256 257 259 263 261 255 258 260 265 269 274 277 280 283 285 286 286 286 286 286
217 214 215 213 211 210 208 202 196 194 200 201 205 204 208 215 221 226 231 235 239 246 251 256 260 262 267 267 267 264 265 268 269 271 273 276 279 281 283 284 284 284 285 285
214 212 213 213 211 209 206 202 200 199 202 204 208 211 213 220 225 229 235 239 243 249 253 257 260 263 266 268 271 272 272 272 271 272 273 276 278 279 281 282 282 283 286 287
207 207 209 207 208 208 205 206 206 206 208 209 212 219 217 221 225 230 235 240 244 249 253 256 260 263 265 267 271 273 274 276 275 277 278 279 279 280 281 281 282 283 284 285
204 205 205 203 205 208 208 209 210 213 216 216 217 226 226 225 227 230 234 239 243 246 251 255 258 261 264 267 270 272 274 276 278 280 280 279 279 279 280 281 282 282 283 284
203 203 204 205 206 209 211 212 214 217 220 219 220 228 230 230 230 233 235 239 242 246 250 254 258 261 264 267 269 270 273 274 276 277 277 277 277 277 278 279 280 282 283 285
204 199 202 207 207 209 211 215 218 221 220 220 221 227 231 231 233 235 237 240 244 248 252 255 258 261 264 267 269 271 273 274 275 276 276 276 277 277 278 279 281 282 284 285
196 195 194 196 203 209 212 212 217 219 220 220 221 226 231 234 235 237 238 240 244 247 250 254 257 261 263 265 268 270 272 273 275 275 275 276 277 278 279 280 282 283 285 286
197 193 191 195 200 204 209 212 216 220 221 222 222 228 233 238 241 242 243 245 246 250 253 254 256 258 261 263 265 268 270 270 271 273 274 276 277 278 280 281 282 284 285 286
197 193 190 194 196 200 206 213 217 221 222 225 227 231 233 240 248 251 253 253 256 256 256 256 257 258 261 263 264 266 267 269 271 273 275 277 278 279 280 281 283 284 285 286
198 197 194 196 202 203 207 210 214 219 222 226 229 235 234 244 253 260 262 263 262 264 262 257 257 260 264 264 264 266 268 271 274 275 277 278 279 280 281 282 283 284 284 285
203 207 207 203 207 210 215 216 219 224 226 228 231 239 243 248 258 266 269 271 270 270 267 262 260 261 262 263 266 269 272 274 276 277 278 279 280 280 281 282 283 284 286 287
218 217 217 216 218 218 222 225 225 229 231 234 234 242 248 254 260 267 271 274 274 275 271 268 265 263 264 267 270 273 275 277 278 279 279 280 281 282 283 284 285 286 287 288
237 235 235 233 228 224 225 229 230 233 237 237 240 246 250 255 260 265 271 274 273 271 271 270 270 270 270 272 274 275 277 278 279 280 281 283 285 286 287 287 288 288 288 289
240 242 247 250 244 235 236 236 240 239 240 244 247 252 256 262 267 271 273 274 278 279 280 279 279 279 279 279 279 280 281 281 282 283 285 286 287 288 289 290 291 291 291 291
281 264 266 261 264 262 257 253 255 255 254 256 257 258 262 268 272 276 280 281 285 286 284 282 284 283 282 283 282 282 282 283 285 286 288 289 290 291 292 292 292 293 293 292
313 295 286 280 274 276 280 280 273 273 270 270 269 267 265 269 274 277 280 282 284 284 285 285 286 288 286 284 285 287 288 289 291 292 294 295 295 296 296 295 295 295 294 294
335 320 306 301 295 290 293 293 293 288 284 279 277 277 275 276 278 280 281 280 279 280 283 287 289 288 288 287 288 290 293 295 296 296 297 298 298 298 299 299 298 298 297 297
348 337 325 315 309 307 302 298 298 297 293 289 285 283 282 281 281 283 284 283 285 285 285 286 288 289 289 292 294 295 297 298 299 300 301 302 302 303 303 303 303 303 303 302
351 341 334 326 321 316 312 307 303 298 295 293 290 286 283 282 283 285 285 285 285 286 287 288 291 292 293 295 297 298 299 300 302 303 304 305 307 308 309 310 310 310 311 310
351 345 339 334 326 320 315 309 304 299 298 296 294 292 288 286 285 287 287 287 287 287 289 291 293 295 297 299 300 301 302 304 305 307 309 311 313 315 316 318 319 319 319 318
349 343 340 336 331 326 321 316 309 306 305 304 300 297 292 289 289 289 289 289 290 292 294 295 297 299 300 302 303 305 307 309 311 312 315 317 319 322 324 325 327 327 327 328
346 344 341 338 333 330 327 323 318 316 313 310 307 302 296 293 291 291 292 294 295 297 299 300 303 304 306 307 308 310 312 313 315 318 321 324 327 330 332 334 335 335 336 337
344 343 342 339 337 334 331 327 323 321 318 316 313 306 299 295 295 296 296 298 300 302 305 308 310 311 312 313 313 315 317 318 320 323 327 330 334 337 338 340 342 345 346 349
Height
5792 5798 5803 5808 5813 5817 5822 5827 5830 5833 5835 5838 5841 5844 5847 5849 5851 5853 5854 5856 5859 5862 5864 5866 5868 5870 5870 5870 5871 5873 5874 5875 5875 5874 5874 5874 5874 5873 5872 5871 5870 5868 5867 5865
5788 5793 5797 5801 5806 5811 5816 5822 5826 5829 5831 5834 5837 5840 5842 5845 5847 5849 5850 5852 5855 5858 5861 5863 5864 5865 5866 5866 5866 5867 5868 5869 5870 5869 5868 5868 5867 5866 5865 5864 5863 5861 5859 5857
5782 5788 5790 5795 5800 5806 5812 5818 5821 5823 5826 5830 5834 5837 5839 5841 5844 5845 5846 5848 5850 5853 5855 5857 5858 5860 5860 5861 5861 5861 5862 5862 5863 5863 5863 5862 5860 5859 5858 5856 5854 5852 5850 5848
5777 5781 5786 5790 5796 5801 5807 5813 5816 5818 5821 5825 5830 5833 5836 5838 5840 5841 5843 5844 5846 5849 5851 5853 5854 5855 5856 5856 5855 5855 5856 5857 5857 5857 5856 5855 5853 5852 5850 5848 5846 5844 5841 5840
5773 5777 5781 5787 5792 5797 5803 5807 5811 5814 5817 5821 5824 5828 5833 5834 5836 5838 5839 5841 5842 5844 5845 5847 5848 5849 5850 5850 5851 5851 5851 5851 5850 5849 5848 5847 5846 5844 5842 5840 5838 5836 5834 5832
5769 5773 5777 5782 5787 5792 5797 5801 5806 5809 5813 5817 5821 5824 5828 5829 5831 5833 5835 5836 5838 5839 5840 5840 5841 5842 5843 5844 5845 5845 5844 5843 5841 5841 5840 5839 5837 5836 5833 5831 5830 5828 5826 5824
5766 5769 5773 5778 5782 5787 5792 5797 5802 5805 5809 5814 5817 5819 5822 5824 5825 5827 5829 5830 5832 5833 5834 5834 5835 5836 5837 5837 5838 5838 5838 5836 5835 5834 5833 5831 5829 5828 5826 5824 5822 5820 5818 5816
5763 5767 5771 5774 5778 5783 5787 5792 5797 5801 5805 5809 5812 5812 5814 5817 5819 5820 5822 5823 5825 5826 5827 5828 5829 5829 5830 5830 5830 5830 5830 5829 5827 5826 5824 5823 5821 5819 5817 5815 5814 5811 5809 5807
5761 5765 5768 5772 5775 5779 5783 5787 5792 5796 5799 5803 5805 5807 5808 5811 5812 5814 5815 5816 5818 5819 5820 5821 5821 5822 5821 5821 5821 5821 5821 5820 5819 5817 5816 5814 5812 5810 5808 5806 5804 5802 5799 5797
5758 5762 5766 5769 5772 5775 5779 5783 5786 5790 5793 5796 5800 5801 5803 5804 5806 5806 5807 5809 5810 5811 5812 5813 5813 5814 5813 5813 5813 5812 5812 5811 5810 5808 5807 5805 5803 5801 5799 5797 5795 5792 5789 5786
5757 5760 5763 5765 5768 5772 5775 5779 5781 5785 5788 5791 5794 5798 5796 5798 5799 5799 5799 5800 5802 5803 5803 5804 5805 5805 5805 5805 5805 5804 5803 5802 5801 5799 5798 5796 5794 5792 5790 5787 5784 5782 5779 5775
5755 5757 5760 5763 5766 5769 5772 5774 5777 5780 5783 5786 5788 5792 5790 5791 5791 5791 5792 5793 5793 5794 5795 5796 5797 5797 5797 5797 5796 5795 5795 5794 5792 5791 5789 5787 5785 5782 5780 5777 5773 5770 5767 5763
5753 5756 5758 5761 5765 5767 5768 5769 5772 5775 5778 5780 5782 5784 5784 5785 5785 5784 5785 5785 5785 5786 5786 5787 5788 5788 5788 5788 5787 5787 5786 5785 5783 5781 5779 5777 5775 5772 5769 5765 5762 5759 5755 5751
5753 5755 5757 5759 5760 5762 5763 5765 5768 5771 5773 5775 5776 5777 5778 5779 5779 5778 5778 5778 5778 5779 5779 5779 5779 5779 5779 5779 5778 5778 5777 5776 5774 5772 5769 5767 5764 5760 5757 5753 5750 5746 5741 5737
5752 5754 5755 5756 5757 5758 5760 5761 5763 5766 5768 5770 5771 5772 5772 5773 5773 5773 5772 5772 5772 5772 5772 5771 5771 5771 5771 5770 5770 5769 5768 5766 5764 5761 5758 5755 5752 5748 5744 5740 5736 5732 5727 5723
5752 5753 5754 5754 5755 5756 5757 5759 5760 5761 5763 5764 5765 5766 5766 5766 5766 5766 5766 5766 5766 5765 5764 5763 5763 5762 5762 5761 5761 5759 5757 5755 5753 5750 5747 5743 5740 5736 5732 5727 5723 5718 5713 5708
5751 5751 5752 5753 5753 5754 5755 5755 5756 5757 5758 5759 5760 5761 5760 5760 5760 5760 5760 5759 5758 5758 5756 5755 5755 5754 5754 5753 5751 5749 5747 5744 5742 5738 5735 5731 5728 5723 5719 5714 5709 5704 5699 5693
5750 5750 5751 5751 5752 5751 5754 5752 5753 5753 5753 5754 5754 5754 5753 5754 5753 5753 5753 5752 5752 5750 5749 5748 5747 5746 5745 5743 5741 5739 5737 5734 5731 5727 5724 5719 5715 5711 5706 5701 5696 5690 5684 5678
5750 5750 5750 5749 5749 5749 5749 5749 5749 5749 5749 5749 5748 5747 5747 5747 5747 5747 5746 5745 5744 5743 5742 5740 5739 5738 5736 5734 5732 5729 5727 5724 5720 5717 5713 5708 5703 5698 5693 5688 5682 5676 5670 5664
5749 5749 5749 5747 5747 5747 5748 5746 5745 5745 5744 5743 5742 5741 5741 5740 5740 5740 5739 5738 5737 5736 5734 5733 5731 5729 5728 5725 5723 5720 5717 5714 5710 5706 5702 5697 5692 5687 5681 5675 5669 5663 5656 5649
5748 5747 5746 5745 5744 5743 5743 5742 5741 5741 5740 5737 5736 5735 5734 5734 5734 5733 5732 5731 5730 5728 5727 5726 5724 5722 5719 5717 5714 5711 5708 5704 5700 5696 5691 5687 5682 5676 5670 5663 5657 5650 5643 5637
5747 5746 5744 5743 5742 5742 5739 5738 5737 5736 5733 5732 5730 5729 5729 5728 5727 5726 5725 5724 5723 5722 5720 5718 5716 5714 5712 5709 5706 5703 5699 5696 5691 5687 5682 5678 5672 5666 5660 5653 5646 5640 5633 5627
5746 5745 5742 5741 5741 5737 5735 5733 5732 5730 5728 5726 5725 5724 5723 5722 5721 5720 5719 5718 5717 5716 5714 5712 5710 5707 5704 5701 5698 5695 5692 5688 5684 5679 5674 5669 5664 5658 5651 5645 5638 5632 5626 5621
5744 5742 5740 5738 5735 5733 5731 5729 5727 5725 5723 5721 5720 5718 5717 5716 5715 5714 5713 5712 5711 5709 5707 5705 5703 5700 5698 5695 5691 5688 5684 5680 5676 5672 5667 5662 5656 5650 5645 5639 5633 5627 5622 5617
5742 5739 5737 5735 5732 5730 5727 5725 5723 5720 5718 5716 5715 5713 5712 5711 5710 5709 5708 5707 5705 5704 5702 5700 5697 5694 5691 5688 5685 5681 5678 5674 5670 5666 5661 5656 5651 5646 5640 5635 5630 5624 5619 5615
5739 5737 5735 5733 5730 5727 5725 5722 5719 5717 5715 5713 5711 5709 5708 5707 5706 5704 5703 5702 5701 5699 5697 5695 5692 5689 5686 5682 5679 5675 5672 5669 5665 5661 5657 5652 5647 5643 5638 5633 5628 5623 5619 5614